Regional Weather Roundup
Issued by NWS

Home | Current Version | Previous Version | Graphics & Text | Print | Product List | Glossary On
Versions: 1 2 3 4 5 6 7 8 9 10 11 12 13 14 15 16 17 18 19 20 21 22 23 24 25 26 27 28 29 30 31 32 33 34 35 36 37 38 39 40 41 42 43 44 45 46 47 48 49 50
000
ASUS45 KCYS 161510
RWRWY

WYOMING REGIONAL WEATHER ROUNDUP
NATIONAL WEATHER SERVICE CHEYENNE WY
900 AM MDT TUE SEP 16 2014

NOTE:  "FAIR" INDICATES FEW OR NO CLOUDS BELOW 12,000 FEET
WITH NO SIGNIFICANT WEATHER AND/OR OBSTRUCTIONS TO VISIBILITY.

WYZ001-161600-
YELLOWSTONE NATIONAL PARK

CITY           SKY/WX    TMP DP  RH WIND       PRES   REMARKS
LK YELLOWSTONE   N/A     46  38  73 CALM      30.36S
W YELLOWSTONE  NOT AVBL

$$
WYZ002>013-054>058-071-098>099-161600-
NORTHERN WYOMING

CITY           SKY/WX    TMP DP  RH WIND       PRES   REMARKS
JACKSON        MOSUNNY   46  34  61 CALM      30.31R
CODY           PTSUNNY   55  41  58 CALM      30.12F
GREYBULL       MOSUNNY   53  43  68 CALM      30.10S
WORLAND        PTSUNNY   53  46  77 SW6       30.10F
SHERIDAN       MOSUNNY   59  44  57 SW3       30.06S
BUFFALO        MOSUNNY   68  36  30 W6        30.11F
GILLETTE       SUNNY     63  50  62 VRB3      30.08S
HULETT         FAIR      59  46  63 MISG      30.09
NEWCASTLE      FAIR      57  43  58 MISG      30.10

$$
WYZ014>020-022>026-101>103-161600-
CENTRAL WYOMING

CITY           SKY/WX    TMP DP  RH WIND       PRES   REMARKS
BIG PINEY      SUNNY     49  29  46 E3        30.33F
PINEDALE       SUNNY     46  32  57 CALM      30.34F
DUBOIS         FAIR      46  32  57 CALM      30.29S
LANDER         SUNNY     60  36  40 N3        30.19S
RIVERTON       SUNNY     57  34  41 NW3       30.20F
CASPER         SUNNY     62  40  44 MISG      30.18F
DOUGLAS        MOSUNNY   60  43  53 NW9       30.17F

$$
WYZ021-027>030-104>119-161600-
SOUTHERN WYOMING

CITY           SKY/WX    TMP DP  RH WIND       PRES   REMARKS
EVANSTON       PTSUNNY   59  34  39 S3        30.31F
KEMMERER       PTSUNNY   50  32  50 N8        30.33S
FORT BRIDGER   FAIR      54  34  46 NW3       30.34S
ROCK SPRINGS   SUNNY     55  34  45 SE3       30.30F
DIXON          FAIR      58  41  54 SE7       30.33F
RAWLINS        SUNNY     61  33  35 S3        30.30S
SARATOGA       FAIR      59  39  47 SE6       30.33S
LARAMIE        SUNNY     65  35  33 NW12      30.30S
CHEYENNE       SUNNY     68  38  33 W13       30.22S
TORRINGTON     SUNNY     55  49  80 NW8       30.10S
PINE BLUFFS    FAIR      63  46  55 CALM      30.15S

$$


USA.gov is the U.S. government's official web portal to all federal, state and local government web resources and services.